Location: Peebles
(55.6412°N, 3.1714°W)
Time: 05:47:23
(UTC+01:00)

deb Agena D - Pass Details

Date: 07 July 2022
Orbit: 797 x 980 km, 99.8° (Epoch: 16 August)

Event Time Altitude Azimuth Distance (km) Brightness Sun altitude
Rises 01:46:23 0° 15° (NNE) 3,380 11.4 -11.5°
Reaches altitude 10° 01:50:30 10° 343° (NNW) 2,481 9.8 -11.4°
Maximum altitude 01:52:11 11° 325° (NW) 2,393 9.3 -11.4°
Drops below altitude 10° 01:53:53 10° 307° (NW) 2,513 9.1 -11.4°
Sets 01:58:09 0° 276° (W) 3,496 9.4 -11.3°
